Flag for Germany Weather past 2 weeks in Wismar, Mecklenburg-Western Pomerania, Germany

Now
52 °F

Light freezing rain. Overcast.


Feels Like: 52 °F
Forecast: 48 / 56 °F
Wind: 3 mph from South

Location: Schwerin

Current Time: Oct 21, 2014 at 7:36:43 PM

Latest Report: Oct 21, 2014 at 7:00 PM


Visibility: 3 mi

Pressure: 29.41 "Hg

Humidity: 93%

Dew point: 50 °F

Location of WismarLocation

Historic Weather in Wismar — Graph

°F

Wismar temperature yesterday

Maximum temperature yesterday: 60 °F (at 2:00 PM)
Minimum temperature yesterday: 53 °F (at 8:00 PM)
Average temperature yesterday: 56 °F

Past Weeks' High & Low Weather Summary

 TemperatureHumidityPressure
High71 °F (Oct 19, 4:00 PM)100% (Oct 14, 1:00 AM)30.18 "Hg (Oct 14, 1:00 AM)
Low47 °F (Oct 8, 8:00 AM)62% (Oct 6, 6:00 PM)29.44 "Hg (Oct 21, 6:00 PM)
Average56 °F88%29.83 "Hg
* Reported Oct 6 6:00 PM — Oct 21 6:00 PM, Wismar, Weather by CustomWeather, © 2014

Note: Actual official high and low records may vary slightly from our data, if they occured in-between our weather recording intervals... More about our weather records

Advertising

Wismar weather history for previous 24 hours

 ConditionsComfort  
Time TempWeatherWind HumidityBarometerVisibility
6:00 PM
Oct 21
53 °FLight rain. Overcast.3 mph93%29.44 "Hg6 mi
4:00 PM54 °FLight rain. Overcast.5 mph89%29.50 "Hg7 mi
3:00 PM56 °FOvercast.5 mph83%29.55 "Hg10 mi
2:00 PM55 °FOvercast.5 mph85%29.58 "Hg7 mi
1:00 PM54 °FOvercast.6 mph86%29.62 "Hg6 mi
12:00 PM54 °FLow clouds.6 mph92%29.65 "Hg4 mi
10:00 AM53 °FLight rain. Low clouds.5 mph95%29.69 "Hg3 mi
9:00 AM52 °FFog.5 mph96%29.71 "Hg3 mi
8:00 AM52 °FFog.3 mph97%29.72 "Hg3 mi
7:00 AM52 °FFog.5 mph96%29.74 "Hg3 mi
6:00 AM52 °FFog.3 mph97%29.76 "Hg4 mi
4:00 AM52 °FLow clouds.5 mph96%29.79 "Hg6 mi
3:00 AM52 °FLow clouds.6 mph96%29.80 "Hg8 mi
2:00 AM52 °FDrizzle. Low clouds.6 mph97%29.80 "Hg7 mi
1:00 AM53 °FLight rain. Overcast.5 mph96%29.82 "Hg4 mi
12:00 AM53 °FLight rain. Overcast.5 mph94%29.83 "Hg7 mi
11:00 PM
Oct 20
53 °FLight rain. Overcast.6 mph93%29.85 "Hg4 mi
10:00 PM54 °FOvercast.5 mph85%29.85 "Hg16 mi
9:00 PM54 °FOvercast.5 mph86%29.85 "Hg11 mi
8:00 PM53 °FOvercast.5 mph87%29.85 "Hg11 mi
7:00 PM54 °FPassing clouds.3 mph80%29.85 "Hg12 mi
Weather by CustomWeather, © 2014

See weather overviewHow to use our weather pages